Snowfall_Accumulation
0.0 0.0 0.0 0.0 0.0 0.0 0.0 0.0 0.0 0.0 0.0 0.0 0.0 0.0 0.0 0.0 0.0 0.0 0.0 nan nan nan nan nan nan nan nan nan nan nan nan nan nan nan nan nan nan nan
0.0 0.0 0.0 0.0 0.0 0.0 0.0 0.0 0.0 0.0 0.0 0.0 0.0 0.0 0.0 0.0 0.0 0.0 0.0 nan nan nan nan nan nan nan nan nan nan nan nan nan nan nan nan nan nan nan
0.0 0.0 0.0 0.0 0.0 0.0 0.0 0.0 0.0 0.0 0.0 0.0 0.0 0.0 0.0 0.0 0.0 0.0 0.0 0.0 0.0 nan nan nan nan nan nan nan nan nan nan nan nan nan nan nan nan nan
0.0 0.0 0.0 0.0 0.0 0.0 0.0 0.0 0.0 0.0 0.0 0.0 0.0 0.0 0.0 0.0 0.0 0.0 0.0 0.0 0.0 nan nan nan nan nan nan nan nan nan nan nan nan nan nan nan nan nan
0.0 0.0 0.0 0.0 0.0 0.0 0.0 0.0 0.0 0.0 0.0 0.0 0.0 0.0 0.0 0.0 0.0 0.0 0.0 0.0 0.0 nan nan nan nan nan nan nan nan nan nan nan nan nan nan nan nan nan
0.0 0.0 0.0 0.0 0.0 0.0 0.0 0.0 0.0 0.0 0.0 0.0 0.0 0.3 0.0 0.0 0.0 0.2 0.0 0.0 0.0 0.0 nan nan nan nan nan nan nan nan nan nan nan nan nan nan nan nan
0.0 0.0 0.0 nan nan nan 0.0 0.0 0.0 0.0 0.1 1.1 0.1 0.1 0.4 0.4 0.0 0.0 0.0 0.0 0.0 0.0 0.0 0.0 0.0 0.0 0.0 nan nan nan nan nan nan nan nan nan nan nan
0.0 0.0 0.0 0.0 0.0 nan nan nan nan 0.0 0.1 0.8 1.3 0.8 0.0 0.0 0.0 0.0 0.1 0.1 0.7 0.0 0.0 0.0 0.0 0.0 0.0 0.0 nan nan nan nan nan nan nan nan nan nan
0.0 0.0 0.0 0.0 nan 0.0 nan nan nan nan nan 0.1 0.0 0.0 0.0 0.0 0.1 0.5 0.5 0.9 0.3 0.0 0.0 0.0 0.0 0.0 0.0 0.0 nan nan nan nan nan nan nan nan nan nan
0.0 0.0 0.0 0.0 0.0 0.0 0.0 0.1 0.2 0.1 0.0 0.0 0.0 0.0 0.0 0.1 0.1 0.1 0.0 0.0 0.1 0.0 0.0 1.8 0.1 0.1 0.0 0.0 nan nan nan nan nan nan nan nan nan nan
0.0 0.0 0.0 0.0 nan nan 0.1 1.2 0.0 0.0 nan nan nan nan nan nan nan 0.1 1.4 1.8 0.7 0.3 0.3 0.5 0.6 0.9 0.6 0.1 0.0 nan nan nan nan nan nan nan nan nan
0.0 0.0 nan 0.0 nan nan 0.0 0.0 0.3 0.0 0.0 0.2 0.0 0.0 nan nan nan 0.0 1.1 5.6 3.7 2.8 0.9 2.6 1.4 1.5 3.0 0.9 0.7 0.3 0.0 nan nan nan nan nan nan 0.0
0.0 0.0 0.0 nan nan nan nan 0.0 0.0 0.0 0.0 0.0 0.0 0.0 0.0 0.1 0.0 0.1 0.3 4.5 7.0 5.4 0.9 2.0 5.6 2.7 2.7 2.6 1.3 1.2 0.7 0.2 0.0 0.0 nan nan nan 0.0
0.0 0.0 0.0 nan nan nan nan nan nan nan 0.0 0.1 0.4 0.6 1.4 1.7 1.4 1.1 0.4 1.0 1.3 3.1 1.1 3.1 13.6 6.4 8.3 4.6 3.6 2.2 2.1 1.3 0.8 0.5 0.2 nan nan nan
0.0 0.0 nan nan nan nan nan nan nan 0.2 0.2 1.3 1.3 2.3 2.5 2.7 2.7 3.4 2.6 2.7 4.3 2.3 2.7 4.9 9.2 7.9 8.7 7.6 5.2 3.5 3.9 3.1 2.2 3.4 2.0 0.9 0.1 0.0
nan 1.2 nan 0.0 nan nan 0.0 0.0 0.3 0.1 0.7 1.8 2.0 1.5 2.1 5.4 5.1 4.9 8.1 7.2 8.2 6.3 3.9 5.5 6.0 7.3 9.0 5.0 3.9 3.0 3.2 6.0 4.0 3.0 1.8 0.9 0.2 0.0
nan 0.0 0.0 0.0 0.4 0.0 0.0 0.0 0.0 0.1 1.8 1.7 2.8 3.0 2.9 4.8 5.8 6.3 8.6 8.9 11.7 9.8 8.5 6.4 3.6 3.4 4.4 5.3 6.0 3.5 2.9 4.1 4.4 3.4 1.6 2.1 1.8 0.4
0.0 0.0 0.6 0.7 0.7 0.1 0.1 0.2 0.2 1.1 1.8 3.2 3.6 4.2 6.3 7.9 9.1 10.1 11.3 11.1 11.1 8.4 8.9 8.5 8.8 8.6 7.8 6.0 6.2 3.4 2.9 4.1 4.8 3.0 1.9 1.6 2.5 0.8
0.0 1.4 1.4 1.3 1.2 1.4 1.8 2.5 4.3 2.4 3.7 7.2 7.8 8.4 9.1 9.3 11.2 10.8 11.3 9.2 8.5 8.4 10.0 10.0 12.3 12.3 11.8 10.3 4.2 nan 2.5 3.5 3.2 2.4 1.2 1.1 1.8 1.7
1.5 2.0 2.1 1.7 1.6 2.4 2.9 4.9 5.7 5.3 7.0 8.5 9.1 10.4 11.2 12.3 13.1 11.9 10.0 10.1 7.9 9.2 10.9 12.5 16.1 18.5 17.7 14.4 9.1 7.1 nan 2.7 1.4 1.7 2.1 0.9 0.8 nan
1.6 1.8 1.3 1.9 2.5 3.3 4.1 5.9 6.0 10.0 12.2 13.3 12.0 12.1 11.8 12.5 11.7 9.7 7.4 5.7 nan 8.1 11.2 10.5 13.0 nan 18.8 11.8 9.6 4.9 5.7 nan 0.7 2.1 2.8 1.8 1.4 1.1
1.1 1.6 1.7 2.3 3.0 4.5 6.8 7.8 9.4 10.0 10.6 10.7 11.1 12.0 11.1 10.3 9.3 7.1 4.9 6.9 5.0 6.8 10.0 12.0 10.1 12.7 16.3 12.4 9.5 4.8 4.6 3.6 nan nan nan nan 4.0 6.2
1.8 1.7 2.1 3.2 4.2 6.0 7.0 8.5 11.0 11.5 10.4 12.4 12.3 10.6 9.5 8.7 5.3 5.0 4.4 3.8 5.2 6.4 6.9 7.4 7.8 9.1 10.0 10.8 11.7 6.8 4.3 4.1 3.4 4.4 3.7 nan nan nan
Water_Equivalent
0.00 0.00 0.00 0.00 0.00 0.00 0.00 0.00 0.00 0.00 0.00 0.00 0.00 0.00 0.00 0.00 0.00 0.00 0.00 nan nan nan nan nan nan nan nan nan nan nan nan nan nan nan nan nan nan nan
0.00 0.00 0.00 0.00 0.00 0.00 0.00 0.00 0.00 0.00 0.00 0.00 0.00 0.00 0.00 0.00 0.00 0.00 0.00 nan nan nan nan nan nan nan nan nan nan nan nan nan nan nan nan nan nan nan
0.00 0.00 0.00 0.00 0.00 0.00 0.00 0.00 0.00 0.00 0.00 0.00 0.00 0.00 0.00 0.00 0.00 0.00 0.00 0.00 0.00 nan nan nan nan nan nan nan nan nan nan nan nan nan nan nan nan nan
0.00 0.00 0.00 0.00 0.00 0.00 0.00 0.00 0.00 0.00 0.00 0.00 0.00 0.00 0.00 0.00 0.00 0.00 0.00 0.00 0.00 nan nan nan nan nan nan nan nan nan nan nan nan nan nan nan nan nan
0.00 0.00 0.00 0.00 0.00 0.00 0.00 0.00 0.00 0.00 0.00 0.00 0.00 0.00 0.00 0.00 0.00 0.00 0.00 0.00 0.00 nan nan nan nan nan nan nan nan nan nan nan nan nan nan nan nan nan
0.00 0.00 0.00 0.00 0.00 0.00 0.00 0.00 0.00 0.00 0.00 0.00 0.00 0.05 0.00 0.00 0.01 0.03 0.00 0.00 0.00 0.00 nan nan nan nan nan nan nan nan nan nan nan nan nan nan nan nan
0.00 0.00 0.00 nan nan nan 0.00 0.00 0.00 0.00 0.01 0.16 0.02 0.02 0.06 0.06 0.00 0.00 0.00 0.00 0.00 0.00 0.00 0.00 0.00 0.00 0.00 nan nan nan nan nan nan nan nan nan nan nan
0.00 0.00 0.00 0.00 0.00 nan nan nan nan 0.00 0.02 0.12 0.18 0.11 0.00 0.00 0.00 0.00 0.01 0.01 0.10 0.00 0.00 0.00 0.00 0.00 0.00 0.00 nan nan nan nan nan nan nan nan nan nan
0.00 0.00 0.00 0.00 nan 0.00 nan nan nan nan nan 0.02 0.00 0.00 0.01 0.00 0.01 0.07 0.07 0.14 0.04 0.00 0.00 0.00 0.00 0.00 0.00 0.00 nan nan nan nan nan nan nan nan nan nan
0.00 0.00 0.00 0.00 0.00 0.00 0.00 0.02 0.03 0.02 0.00 0.00 0.00 0.00 0.00 0.01 0.01 0.01 0.01 0.01 0.01 0.01 0.00 0.32 0.03 0.03 0.00 0.00 nan nan nan nan nan nan nan nan nan nan
0.00 0.00 0.00 0.00 nan nan 0.01 0.17 0.01 0.00 nan nan nan nan nan nan nan 0.01 0.25 0.32 0.16 0.10 0.10 0.12 0.13 0.19 0.15 0.04 0.00 nan nan nan nan nan nan nan nan nan
0.00 0.00 nan 0.00 nan nan 0.01 0.00 0.06 0.01 0.00 0.03 0.00 0.00 nan nan nan 0.00 0.20 0.83 0.62 0.46 0.19 0.41 0.26 0.28 0.49 0.22 0.21 0.07 0.00 nan nan nan nan nan nan 0.00
0.01 0.00 0.00 nan nan nan nan 0.00 0.00 0.00 0.00 0.00 0.00 0.00 0.01 0.03 0.01 0.03 0.05 0.71 1.00 0.84 0.19 0.36 0.88 0.45 0.50 0.42 0.26 0.29 0.17 0.05 0.00 0.00 nan nan nan 0.00
0.01 0.00 0.00 nan nan nan nan nan nan nan 0.00 0.01 0.10 0.21 0.33 0.39 0.38 0.31 0.10 0.21 0.24 0.46 0.20 0.54 1.74 0.87 1.05 0.63 0.48 0.37 0.37 0.28 0.15 0.08 0.04 nan nan nan
0.00 0.00 nan nan nan nan nan nan nan 0.05 0.04 0.22 0.35 0.59 0.60 0.64 0.55 0.56 0.47 0.50 0.73 0.44 0.51 0.83 1.30 1.10 1.09 0.88 0.59 0.46 0.56 0.56 0.43 0.58 0.37 0.18 0.02 0.00
nan 0.18 nan 0.00 nan nan 0.00 0.00 0.06 0.01 0.09 0.23 0.31 0.31 0.45 0.85 0.74 0.73 1.11 1.08 1.19 0.97 0.67 0.90 0.84 0.85 0.97 0.62 0.53 0.40 0.45 0.82 0.72 0.61 0.39 0.24 0.04 0.00
nan 0.00 0.00 0.00 0.07 0.00 0.00 0.00 0.00 0.01 0.25 0.27 0.42 0.45 0.50 0.72 0.77 0.93 1.20 1.29 1.44 1.19 1.01 0.85 0.51 0.48 0.57 0.64 0.72 0.47 0.41 0.56 0.73 0.58 0.29 0.42 0.46 0.13
0.00 0.00 0.09 0.11 0.11 0.01 0.02 0.03 0.05 0.22 0.27 0.53 0.58 0.64 0.84 0.99 1.14 1.37 1.52 1.40 1.29 0.98 1.01 0.99 0.94 0.93 0.90 0.76 0.72 0.40 0.39 0.54 0.69 0.52 0.35 0.28 0.47 0.18
0.00 0.20 0.19 0.20 0.19 0.22 0.28 0.39 0.60 0.43 0.75 1.19 1.10 1.12 1.12 1.15 1.40 1.34 1.35 1.12 0.99 0.97 1.13 1.06 1.27 1.27 1.23 1.04 0.51 nan 0.32 0.46 0.47 0.36 0.21 0.20 0.31 0.36
0.22 0.28 0.30 0.26 0.25 0.37 0.44 0.73 0.80 0.76 0.98 1.16 1.21 1.33 1.48 1.60 1.60 1.38 1.15 1.10 0.90 1.05 1.16 1.32 1.71 1.96 1.84 1.48 0.93 0.82 nan 0.36 0.20 0.24 0.30 0.16 0.15 nan
0.22 0.27 0.21 0.30 0.38 0.54 0.61 0.78 0.79 1.26 1.60 1.70 1.51 1.62 1.58 1.57 1.36 1.10 0.86 0.66 nan 0.92 1.16 1.09 1.37 nan 2.01 1.25 1.01 0.54 0.75 nan 0.11 0.24 0.37 0.25 0.22 0.18
0.15 0.22 0.25 0.38 0.49 0.69 0.95 1.06 1.31 1.43 1.39 1.32 1.42 1.53 1.35 1.22 1.05 0.78 0.52 0.76 0.58 0.79 1.04 1.26 1.05 1.34 1.75 1.31 0.99 0.51 0.50 0.48 nan nan nan nan 0.47 0.67
0.25 0.23 0.36 0.55 0.71 0.83 0.95 1.10 1.45 1.45 1.32 1.56 1.54 1.27 1.11 0.95 0.56 0.54 0.49 0.44 0.61 0.69 0.74 0.77 0.80 0.94 1.04 1.14 1.23 0.71 0.45 0.44 0.39 0.50 0.53 nan nan nan
SL_Ratio
nan nan nan nan nan nan nan nan nan nan nan nan nan nan nan nan nan nan nan nan nan nan nan nan nan nan nan nan nan nan nan nan nan nan nan nan nan nan
nan nan nan nan nan nan nan nan nan nan nan nan nan nan nan nan nan nan nan nan nan nan nan nan nan nan nan nan nan nan nan nan nan nan nan nan nan nan
nan nan nan nan nan nan nan nan nan nan nan nan nan nan nan nan nan nan nan nan nan nan nan nan nan nan nan nan nan nan nan nan nan nan nan nan nan nan
nan nan nan nan nan nan nan nan nan nan nan 5.0 nan nan nan nan nan nan nan nan nan nan nan nan nan nan nan nan nan nan nan nan nan nan nan nan nan nan
nan nan nan nan nan nan nan nan nan nan nan 5.0 6.8 nan nan nan nan nan nan nan nan nan nan nan nan nan nan nan nan nan nan nan nan nan nan nan nan nan
nan nan nan nan nan nan nan nan nan nan nan nan 7.0 6.6 6.7 nan 6.1 6.6 5.0 nan nan nan nan nan nan nan nan nan nan nan nan nan nan nan nan nan nan nan
nan nan nan nan nan nan nan nan nan nan 5.9 6.9 7.2 7.2 6.9 6.9 7.5 nan 5.0 5.0 5.0 nan nan nan nan nan nan nan nan nan nan nan nan nan nan nan nan nan
nan nan nan nan nan nan nan nan nan 6.0 6.6 7.0 7.1 7.3 7.2 7.0 nan 7.0 7.5 7.9 7.6 nan 6.7 7.5 nan nan nan nan nan nan nan nan nan nan nan nan nan nan
nan nan nan nan nan nan nan nan nan nan nan 6.0 6.7 6.9 5.9 7.9 7.1 7.4 6.6 6.3 7.6 8.3 6.3 7.1 5.0 10.0 nan nan nan nan nan nan nan nan nan nan nan nan
nan nan nan 5.0 nan nan 5.0 5.1 6.4 6.2 nan nan 6.7 6.3 5.6 5.7 5.8 6.8 6.8 7.6 3.5 3.1 6.5 5.7 3.0 3.3 2.5 nan nan nan nan nan nan nan nan nan nan nan
nan nan nan nan nan nan 4.8 6.7 6.7 5.0 nan nan nan nan nan nan nan 5.4 5.7 5.7 4.1 2.8 2.6 4.5 4.5 5.0 3.8 2.7 nan nan nan nan nan nan nan nan nan nan
nan nan nan nan nan nan 5.6 6.8 6.2 4.7 7.0 7.0 5.0 nan nan nan nan 6.2 5.3 6.8 6.0 6.1 4.6 6.3 5.5 5.3 6.1 4.3 3.4 3.6 nan nan nan nan nan nan nan nan
6.0 7.5 nan nan nan nan nan 10.0 5.5 nan 6.1 nan nan 2.5 2.8 3.0 3.9 4.7 5.5 6.3 7.0 6.4 4.6 5.5 6.3 5.9 5.4 6.3 4.9 4.2 4.1 4.7 nan 5.0 nan nan nan nan
6.5 nan nan nan nan nan nan nan nan nan nan 6.4 3.5 3.0 4.3 4.3 3.7 3.7 4.2 4.7 5.2 6.8 5.5 5.6 7.8 7.3 8.0 7.2 7.5 5.8 5.7 4.7 5.3 5.8 5.3 nan nan nan
10.0 6.5 nan nan nan nan nan nan nan 4.9 6.1 5.6 3.8 4.0 4.2 4.3 4.9 6.0 5.5 5.4 5.9 5.2 5.3 5.9 7.0 7.1 8.0 8.7 8.7 7.5 6.9 5.5 5.1 5.8 5.5 4.9 4.3 nan
nan 6.4 nan nan nan nan nan nan 4.9 7.0 7.7 7.8 6.5 4.7 4.7 6.4 7.0 6.7 7.3 6.6 6.9 6.6 5.8 6.2 7.2 8.7 9.3 8.1 7.5 7.4 7.1 7.4 5.6 5.0 4.5 3.9 3.7 2.5
nan nan nan nan 5.4 10.0 10.0 nan 7.5 7.5 7.2 6.5 6.5 6.6 5.8 6.6 7.5 6.8 7.2 6.9 8.1 8.2 8.4 7.5 7.1 7.2 7.7 8.3 8.3 7.5 7.1 7.3 6.0 5.9 5.5 5.1 4.0 3.3
7.5 6.7 6.7 6.5 6.6 6.7 6.6 7.2 4.8 5.3 6.4 6.0 6.3 6.5 7.5 8.0 8.0 7.4 7.4 7.9 8.5 8.6 8.8 8.6 9.4 9.3 8.6 7.8 8.6 8.4 7.5 7.6 7.0 5.8 5.4 5.6 5.2 4.6
6.8 7.0 6.9 6.7 6.6 6.4 6.4 6.3 7.1 5.5 5.0 6.1 7.2 7.5 8.1 8.1 8.0 8.1 8.4 8.2 8.6 8.7 8.9 9.4 9.6 9.7 9.6 9.9 8.3 nan 8.0 7.7 6.9 6.6 5.6 5.4 5.8 4.7
7.1 7.1 6.9 6.7 6.5 6.5 6.6 6.7 7.1 7.0 7.1 7.3 7.6 7.8 7.6 7.7 8.1 8.6 8.7 9.2 8.8 8.7 9.4 9.4 9.4 9.5 9.6 9.7 9.8 8.6 nan 7.5 7.3 7.0 7.0 5.6 5.3 nan
7.3 6.9 6.5 6.3 6.4 6.1 6.6 7.6 7.6 8.0 7.6 7.8 7.9 7.5 7.4 7.9 8.6 8.8 8.7 8.6 nan 8.8 9.6 9.6 9.5 nan 9.3 9.5 9.5 9.2 7.6 nan 6.3 8.8 7.7 7.4 6.7 6.0
7.3 7.1 6.7 6.1 6.1 6.5 7.1 7.3 7.2 7.0 7.6 8.1 7.8 7.8 8.2 8.4 8.9 9.1 9.4 9.1 8.7 8.7 9.6 9.5 9.6 9.5 9.4 9.5 9.6 9.6 9.1 7.6 nan nan nan nan 8.4 9.2
7.4 7.3 5.8 5.8 5.9 7.3 7.4 7.7 7.5 7.9 7.9 8.0 8.0 8.3 8.6 9.1 9.6 9.3 9.1 8.7 8.6 9.3 9.3 9.6 9.7 9.7 9.6 9.5 9.6 9.6 9.6 9.3 8.7 8.6 7.0 nan nan nan